www.pogodaiklimat.ru

Погода и климат >> Архив погоды >> Португалия >> Аэропорт Лажеша


ПОГОДА в Аэропорту Лажеша

  • Прогноз погоды в Аэропорту Лажеша
  • Монитор погоды в Аэропорту Лажеша

АРХИВ ПОГОДЫ в Аэропорту Лажеша

Время (UTC), дата Ветер
(напр.,м/с)
 
Видим.   Явления Облачность Т
(С)
Тd
(С)
f
(%)
Тe
(С)
Тes
(С)
Комфортность P
(гПа)
Po
(гПа)
Тmin
(С)
Tmax
(С)
R
(мм)
R24
(мм)
S
(см)
18 14.05 СЗ 7 10 км 6/1 750 м
[Cu hum Ci fib]
+19.2 +12.3 64 +20 +21 1022.6 1016.1 +20.0
21 14.05 СЗ 3 10 км 4/1 750 м
[Cu hum Ci fib]
+17.5 +12.6 73 +18 +18 1023.7 1017.3
00 15.05 Ю 2 10 км 6/1 750 м
[Cu hum Ac trans Ci fib]
+15.6 +13.0 85 +15 +15 1024.1 1017.6
03 15.05 Ю 3 10 км 9/1 750 м
[Cu Sc As op]
+16.0 +12.2 78 +16 +16 1022.4 1015.9
06 15.05 штиль 0 10 км 9/9 750 м
[Cu Sc]
+16.4 +13.3 82 +16 +16 1022.1 1015.6 +15.2
09 15.05 СЗ 2 10 км осадки на расстоянии 9/6 360 м
[Cu Sc As op]
+17.2 +14.0 81 +18 +18 1022.4 1015.9
12 15.05 З 4 10 км {дождь, морось} 9/6 270 м
[Cu Sc Ac As]
+19.6 +16.4 82 +22 +24 комфорт 1022.4 1015.9 0.1
15 15.05 СВ 3 10 км 9/6 450 м
[Cu Sc Ac As Ci fib]
+19.9 +16.2 79 +23 +26 комфорт 1021.4 1014.9
18 15.05 С 2 10 км 9/9 540 м
[Cu Sc]
+20.0 +15.2 74 +23 +24 комфорт 1021.4 1014.9 +21.5 0.1
21 15.05 СЗ 7 10 км 5/4 240 м
[Cu Sc Ci fib]
+17.4 +15.2 87 +16 +16 1022.1 1015.6
00 16.05 СЗ 7 2000 м слаб. морось 10/10 210 м
[Cu med, cong]
+16.0 +15.1 94 +14 +14 1022.6 1016.1 0.0
03 16.05 СЗ 8 2000 м дождь {морось} 10/10 60 м
[Cu med, cong]
+15.9 +15.6 98 +14 +14 1022.7 1016.3
06 16.05 СЗ 10 6000 м слаб. морось {дождь} 10/10 30 м
[Cu med, cong]
+15.8 +15.3 97 +14 +14 1022.4 1015.9 +15.1 0.4
09 16.05 С 9 4000 м слаб. морось {дождь} 10/10 30 м
[Cu med, cong]
+15.5 +15.3 99 +13 +13 1023.9 1017.4
12 16.05 С 9 10 км {морось} 9/9 240 м
[Cu med, cong]
+17.0 +15.4 90 +16 +16 1024.9 1018.5 0.5
15 16.05 СЗ 7 10 км 10/10 270 м
[Cu med, cong]
+17.6 +15.1 85 +17 +17 1025.1 1018.6
18 16.05 С 6 10 км в посл. час морось 10/10 240 м
[Cu med, cong]
+17.2 +15.3 89 +16 +16 1024.6 1018.1 +18.2 0.5
21 16.05 СЗ 8 10 км в посл. час морось 10/10 240 м
[Cu Sc]
+16.2 +14.8 91 +15 +15 1025.3 1018.8
00 17.05 С 5 10 км {морось} 9/9 240 м
[Cu med, cong]
+15.8 +13.0 83 +15 +15 1025.8 1019.3 0.0
03 17.05 С 6 10 км в посл. час дождь {морось} 10/9 150 м
[Sc]
+15.2 +14.2 94 +14 +14 1025.8 1019.3
06 17.05 С 4 10 км {дождь, морось} 9/9 240 м
[Cu med, cong]
+15.4 +14.8 96 +14 +14 1025.1 1018.6 +15.0 0.2
09 17.05 С 4 10 км 9/9 420 м
[Cu Sc]
+16.2 +14.3 89 +15 +16 1025.8 1019.3
12 17.05 С 3 10 км 6/6 800 м
[Cu med, cong]
+18.6 +12.7 69 +19 +25 1026.0 1019.5
15 17.05 С 4 10 км 9/9 800 м
[Cu Sc]
+18.4 +12.9 70 +19 +20 1026.0 1019.5
18 17.05 С 6 10 км 9/9 700 м
[Cu Sc]
+18.0 +13.8 76 +17 +18 1025.4 1019.0 +20.0
21 17.05 СЗ 4 10 км 8/5 660 м
[Cu Sc Ci fib]
+16.8 +13.0 78 +16 +16 1025.3 1018.8
00 18.05 З 3 10 км 8/4 750 м
[Cu med, cong Ci fib]
+15.1 +13.0 87 +14 +14 1025.8 1019.3
03 18.05 З 3 10 км 8/4 750 м
[Cu med, cong Ci fib]
+14.2 +11.3 83 +13 +13 1024.9 1018.5
06 18.05 штиль 0 10 км 10/8 660 м
[Cu med, cong Ci fib]
+14.2 +12.2 88 +14 +14 1023.7 1017.3 +14.0
09 18.05 СЗ 2 10 км в посл. час морось 8/8 240 м
[Cu med, cong]
+16.0 +15.1 94 +16 +17 1024.1 1017.6
12 18.05 СЗ 7 10 км 9/9 240 м
[Cu med, cong]
+20.0 +18.1 89 +23 +23 комфорт 1024.1 1017.6 0.2
15 18.05 СЗ 7 10 км в посл. час дождь 8/8 450 м
[Cu hum]
+18.6 +17.2 92 +19 +20 1024.4 1017.9
18 18.05 СЗ 7 10 км 3/3 600 м
[Cu hum]
+20.2 +13.9 67 +22 +23 комфорт 1024.1 1017.6 +21.0 0.2
21 18.05 СЗ 3 10 км 1/1 750 м
[Cu Sc]
+19.0 +13.9 72 +20 +20 1024.3 1017.8
00 19.05 штиль 0 10 км 1/1 600 м
[Cu hum]
+15.4 +13.1 86 +15 +15 1024.4 1017.9
03 19.05 штиль 0 10 км 1/1 600 м
[Cu hum]
+14.0 +13.0 94 +14 +14 1023.7 1017.3
06 19.05 штиль 0 10 км 1/1 600 м
[Cu hum]
+13.6 +12.3 92 +13 +13 1022.9 1016.4 +13.6
09 19.05 СЗ 2 10 км 3/1 540 м
[Cu Sc Ci fib]
+15.9 +13.5 86 +16 +20 1023.2 1016.8
12 19.05 С 3 10 км 3/1 600 м
[Cu hum Ci fib]
+19.4 +14.7 74 +21 +33 комфорт 1022.9 1016.4
15 19.05 штиль 0 10 км 1/1 600 м
[Cu hum Ci fib]
+22.4 +15.7 66 +26 +49 жарко 1022.4 1015.9
18 19.05 ЮЗ 5 10 км 3/1 600 м
[Cu Sc Ci fib]
+22.0 +15.1 65 +26 +29 душно 1021.2 1014.7 +22.5
21 19.05 штиль 0 10 км 4/3 600 м
[Cu Sc Ci fib]
+18.9 +15.0 78 +20 +20 1021.4 1014.9
00 20.05 штиль 0 10 км 4/1 600 м
[Cu hum Ci fib]
+17.3 +13.8 80 +17 +17 1021.0 1014.6
03 20.05 штиль 0 10 км 4/1 600 м
[Cu hum Ci fib]
+15.6 +13.8 89 +15 +15 1020.0 1013.5
06 20.05 ЮЗ 4 10 км 6/3 480 м
[Cu Sc Ci fib]
+17.8 +14.5 81 +18 +18 1018.3 1011.9 +15.4
09 20.05 З 2 10 км 5/4 540 м
[Cu Sc Ci fib]
+19.2 +14.8 76 +21 +24 комфорт 1018.2 1011.7
12 20.05 З 6 10 км 8/5 600 м
[Cu Sc Ac trans Ci fib]
+21.0 +14.8 68 +24 +26 комфорт 1018.3 1011.9
15 20.05 ЮЗ 7 10 км 8/5 300 м
[Cu Sc Ci fib]
+22.4 +16.5 69 +27 +29 душно 1017.7 1011.2
18 20.05 ЮЗ 6 10 км 6/5 420 м
[Cu Sc Ci fib]
+21.2 +16.4 74 +25 +26 комфорт 1016.3 1009.8 +24.0
21 20.05 ЮЗ 8 10 км 8/8 150 м
[Cu Sc]
+20.2 +16.7 80 +23 +23 комфорт 1016.0 1009.5
00 21.05 ЮЗ 6 10 км 9/9 180 м
[Cu Sc]
+20.0 +15.7 76 +22 +22 комфорт 1015.6 1009.1
03 21.05 ЮЗ 11 10 км 6/6 180 м
[Cu Sc]
+19.0 +16.6 86 +19 +19 1013.3 1006.8
06 21.05 ЮЗ 8 10 км 9/9 150 м
[Cu Sc]
+18.8 +16.2 85 +19 +19 1012.1 1005.6 +18.4
09 21.05 СЗ 6 2000 м слаб. дождь 10/9 150 м
[Cu med, cong As op]
+14.7 +14.4 98 +13 +13 1012.6 1006.1
12 21.05 В 3 10 км {ливн. осадки, дождь} 9/6 800 м
[Cu med, cong Ac As]
+17.8 +15.8 88 +18 +21 1013.6 1007.1 14
15 21.05 СЗ 5 6000 м слаб. ливневой дождь 9/8 800 м
[Cu med, cong Ac trans Ci fib]
+17.8 +16.9 94 +17 +19 1014.1 1007.6

 

Местоположение метеостанции Аэропорт Лажеша (Португалия): широта 38.77 долгота -27.10 высота над уровнем моря 54 м.

В архиве по умолчанию представлена погода в Аэропорту Лажеша за последнюю неделю. Архивные данные за месяц целиком и за предыдущие месяцы, начиная с января 2011 года, Вы можете получить, выбрав интересующий диапазон дат из раскрывающегося списка и нажав кнопку "Ввод!".


*Определитесь, кто Вы:
робот инопланетянин человек

Внимание! Время в таблицах - всемирное. Для получения местного времени необходимо прибавить поправку, которая равна 0 ч.

Смотрите также архив погоды в соседних городах и на ближайших метеорологических станциях:

Погода в Ангра-ду-Эроижму (Португалия) (15 км)
Погода на Острове Грасьоса (Португалия) (88 км)
Погода в Сан-Жоржи (Португалия) (94 км)
Погода в Пико (Португалия) (119 км)
Погода в Орте (Португалия) (136 км)
Погода в Каштелу-Бранку (Португалия) (143 км)
Погода в Понта-Делгаде (Португалия) (168 км)
Погода в Санта-Марии (Португалия) (263 км)
Погода на Флошише (Португалия) (356 км)
Погода в Фуншале (Португалия) (1146 км)

Пояснения к столбцам:

Ветер - указаны скорость ветра в м/с - средняя за 10 мин, порывы в срок и между сроками (в фигурных скобках) и направление, откуда дует ветер: С - северный, СВ - северо-восточный, В - восточный, ЮВ - юго-восточный, Ю - южный, ЮЗ - юго-западный, З - западный, СЗ - северо-западный.
Видимость - горизонтальная дальность видимости в метрах или километрах. При видимости от 1 до 10 км при отсутствии осадков обычно наблюдается дымка, при ухудшении видимости до 1 км и менее - туман. В сухую погоду видимость может ухудшаться дымом, пылью или мглою.
Явления - указаны атмосферные явления, наблюдавшиеся в срок или в последний час перед сроком; фигурными скобками обозначены явления, наблюдавшиеся между сроками (за 1-3 часа до срока); квадратными скобками обозначены град или гололедные отложения с указанием их диаметра в мм.
Облачность - указаны через наклонную черту общая и нижняя облачность в баллах и высота нижней границы облаков в метрах; квадратными скобками обозначены формы облаков: Ci - перистые, Cs - перисто-слоистые, Cc - перисто-кучевые, Ac - высококучевые, As - высокослоистые, Sc - слоисто-кучевые, Ns - слоисто-дождевые, Cu - кучевые, Cb - кучево-дождевые. Подробнее классификацию облаков см. в Атласе облаков (PDF).
T - Температура воздуха - температура, измеренная на высоте 2 м над землей.
Td - Температура точки росы - температура, при понижении до которой содержащийся в воздухе водяной пар достигнет насыщения.
f - Относительная влажность воздуха - влажноcть воздуха, измеренная на высоте 2 м над землей.
Te - Эффективная температура - температура, которую ощущает одетый по сезону человек в тени. Характеристика душности погоды. При расчете учитывается влияние влажности воздуха и скорости ветра на теплоощущения человека.
Tes - Эффективная температура на солнце - температура, которую ощущает человек, с поправкой на солнечный нагрев. Характеристика знойности погоды. Зависит от высоты солнца над горизонтом, облачности и скорости ветра. Ночью, в пасмурную погоду, а также при ветре 12 м/с и более поправка равна нулю.
P - Атмосферное давление - приведенное к уровню моря атмосферное давление.
Po - Атмосферное давление - измеренное на уровне метеостанции атмосферное давление.
Tmin - Минимальная температура - минимум температуры воздуха на высоте 2 м над землей.
Tmax - Максимальная температура - максимум температуры воздуха на высоте 2 м над землей.
R - Количество осадков - Количество выпавших осадков за период времени, мм. При наведении курсора мыши на число - период времени, за который выпало указанное количество осадков.
R24 - Количество осадков - Количество выпавших осадков за 24 часа, мм.
S - Снежный покров - Высота снежного покрова, см. При наведении курсора мыши на число - состояние снежного покрова и степень покрытия местности в баллах.